| time (UTC) | temp F | wind direction | speed MPH | gust MPH | rain 1hr in | rain 24hr in | rain mn in | humidity % | barometer mb |
| 20260505061555 | 55 | 0 | 0.0 | 1.0 | 0.00 | 0.00 | 0.00 | 85 | 1012.3 |
| 20260505054604 | 57 | 221 | 0.0 | 2.0 | 0.00 | 0.00 | 0.00 | 83 | 1012.1 |
| 20260505053110 | 58 | 0 | 0.0 | 1.0 | 0.00 | 0.00 | 0.00 | 80 | 1011.9 |
| 20260505051558 | 59 | 288 | 0.0 | 2.0 | 0.00 | 0.00 | 0.00 | 79 | 1011.9 |
| 20260505041612 | 63 | 145 | 2.0 | 7.0 | 0.00 | 0.00 | 0.00 | 72 | 1011.1 |
| 20260505040057 | 64 | 189 | 3.0 | 5.0 | 0.00 | 0.00 | 0.00 | 71 | 1011.1 |
| 20260505034553 | 65 | 174 | 3.0 | 6.0 | 0.00 | 0.00 | 0.00 | 69 | 1010.8 |
| 20260505033054 | 66 | 0 | 0.0 | 6.0 | 0.00 | 0.00 | 0.00 | 67 | 1010.6 |
| 20260505031605 | 67 | 0 | 1.0 | 4.0 | 0.00 | 0.00 | 0.00 | 65 | 1010.3 |
| 20260505030052 | 69 | 293 | 2.0 | 5.0 | 0.00 | 0.00 | 0.00 | 63 | 1010.1 |
| 20260505024555 | 70 | 259 | 2.0 | 9.0 | 0.00 | 0.00 | 0.00 | 61 | 1009.9 |
| 20260505023102 | 72 | 0 | 1.0 | 5.0 | 0.00 | 0.00 | 0.00 | 57 | 1009.7 |
| 20260505021555 | 74 | 199 | 2.0 | 6.0 | 0.00 | 0.00 | 0.00 | 55 | 1009.6 |
| 20260505020052 | 75 | 237 | 1.0 | 6.0 | 0.00 | 0.00 | 0.00 | 54 | 1009.4 |
| 20260505014551 | 76 | 228 | 2.0 | 6.0 | 0.00 | 0.00 | 0.00 | 54 | 1009.4 |
| 20260505013059 | 76 | 233 | 3.0 | 9.0 | 0.00 | 0.00 | 0.00 | 53 | 1009.4 |
| 20260505011557 | 77 | 240 | 3.0 | 11.0 | 0.00 | 0.00 | 0.00 | 53 | 1009.4 |
| 20260505010056 | 78 | 350 | 2.0 | 8.0 | 0.00 | 0.00 | 0.00 | 53 | 1009.4 |
| 20260505004555 | 79 | 254 | 3.0 | 7.0 | 0.00 | 0.00 | 0.00 | 51 | 1009.3 |
| 20260505003058 | 79 | 228 | 3.0 | 6.0 | 0.00 | 0.00 | 0.00 | 51 | 1009.3 |
| 20260505001555 | 80 | 250 | 2.0 | 7.0 | 0.00 | 0.00 | 0.00 | 53 | 1009.2 |
| 20260505000107 | 79 | 233 | 2.0 | 8.0 | 0.00 | 0.00 | 0.00 | 50 | 1009.1 |
| 20260504234617 | 80 | 4 | 1.0 | 6.0 | 0.00 | 0.00 | 0.00 | 49 | 1009.2 |
| 20260504233057 | 80 | 310 | 3.0 | 10.0 | 0.00 | 0.00 | 0.00 | 49 | 1009.3 |
| 20260504231603 | 80 | 23 | 1.0 | 8.0 | 0.00 | 0.00 | 0.00 | 48 | 1009.4 |
| 20260504230057 | 80 | 347 | 3.0 | 6.0 | 0.00 | 0.00 | 0.00 | 48 | 1009.6 |
| 20260504224556 | 80 | 15 | 3.0 | 11.0 | 0.00 | 0.00 | 0.00 | 49 | 1009.5 |
| 20260504223058 | 80 | 295 | 2.0 | 8.0 | 0.00 | 0.00 | 0.00 | 50 | 1009.6 |
| 20260504221600 | 80 | 313 | 4.0 | 10.0 | 0.00 | 0.00 | 0.00 | 51 | 1009.8 |
| 20260504220058 | 79 | 23 | 4.0 | 9.0 | 0.00 | 0.00 | 0.00 | 51 | 1009.9 |
| 20260504214554 | 79 | 237 | 4.0 | 11.0 | 0.00 | 0.00 | 0.00 | 49 | 1010.0 |
| 20260504213053 | 79 | 333 | 2.0 | 10.0 | 0.00 | 0.00 | 0.00 | 48 | 1010.0 |
| 20260504211557 | 80 | 19 | 3.0 | 9.0 | 0.00 | 0.00 | 0.00 | 47 | 1010.1 |
| 20260504210108 | 79 | 208 | 1.0 | 10.0 | 0.00 | 0.00 | 0.00 | 46 | 1010.1 |
| 20260504204602 | 79 | 2 | 2.0 | 7.0 | 0.00 | 0.00 | 0.00 | 47 | 1010.3 |
| 20260504203054 | 78 | 347 | 2.0 | 14.0 | 0.00 | 0.00 | 0.00 | 46 | 1010.3 |
| 20260504201602 | 78 | 265 | 2.0 | 8.0 | 0.00 | 0.00 | 0.00 | 53 | 1010.4 |
| 20260504200100 | 77 | 335 | 3.0 | 6.0 | 0.00 | 0.00 | 0.00 | 47 | 1010.5 |
| 20260504194608 | 76 | 13 | 3.0 | 9.0 | 0.00 | 0.00 | 0.00 | 52 | 1010.5 |
| 20260504193053 | 76 | 65 | 3.0 | 9.0 | 0.00 | 0.00 | 0.00 | 51 | 1010.7 |
| 20260504191554 | 75 | 8 | 4.0 | 7.0 | 0.00 | 0.00 | 0.00 | 52 | 1010.8 |
| 20260504190117 | 74 | 307 | 3.0 | 9.0 | 0.00 | 0.00 | 0.00 | 56 | 1010.9 |
| 20260504184558 | 74 | 335 | 4.0 | 9.0 | 0.00 | 0.00 | 0.00 | 54 | 1011.1 |
| 20260504183058 | 74 | 27 | 3.0 | 9.0 | 0.00 | 0.00 | 0.00 | 57 | 1011.0 |
| 20260504181603 | 73 | 18 | 1.0 | 6.0 | 0.00 | 0.00 | 0.00 | 58 | 1011.0 |
| 20260504180144 | 72 | 65 | 2.0 | 6.0 | 0.00 | 0.00 | 0.00 | 61 | 1011.1 |
| 20260504174553 | 71 | 83 | 3.0 | 6.0 | 0.00 | 0.00 | 0.00 | 62 | 1011.2 |
| 20260504173111 | 71 | 32 | 1.0 | 5.0 | 0.00 | 0.00 | 0.00 | 63 | 1011.3 |
| 20260504171553 | 70 | 15 | 2.0 | 6.0 | 0.00 | 0.00 | 0.00 | 65 | 1011.3 |
| 20260504140113 | 52 | 218 | 0.0 | 3.0 | 0.00 | 0.00 | 0.00 | 89 | 1010.4 |
| 20260504120114 | 49 | 134 | 0.0 | 1.0 | 0.00 | 0.00 | 0.00 | 96 | 1009.8 |
| 20260504081558 | 54 | 157 | 0.0 | 1.0 | 0.00 | 0.00 | 0.00 | 91 | 1009.7 |